Date String (YYYY-MM-DD hh:mm:ss) UTC,Instrument flags,Ambient pressure (hPa),Sample flow (lpm),Bypass flow (lpm),Sample temperature (°C),Ambient temperature (°C),ASC tube jacket temperature (°C),LED temperature (°C),Box temperature (°C),Sample RH (%),Span deviation,Mass concentration (μg/m³),Mass concentration (μg/m³),Mass concentration (μg/m³)
DateTimeUTC,F1_M11,P_M11,Q1_M11,Q2_M11,T1_M11,T2_M11,T3_M11,T4_M11,T5_M11,U1_M11,ZSPAN_M11,X0_M11,X2_M11,X1_M11
2022-06-14 05:00:00,,0815.4,4.99,0.00,29.2,27.6,00.0,38.0,31.1,15.9,0000.0,0024.32,0006.57,0003.17
2022-06-14 05:01:00,,0815.4,5.00,0.00,29.2,27.8,00.0,38.0,31.1,15.9,0000.0,0024.95,0006.59,0003.19
2022-06-14 05:02:00,,0815.3,5.00,0.00,29.2,27.9,00.0,38.0,31.1,15.9,0000.0,0022.95,0006.51,0003.19
2022-06-14 05:03:00,,0815.2,5.00,0.00,29.2,28.1,00.0,38.1,31.2,15.8,0000.0,0022.96,0006.45,0003.19
2022-06-14 05:04:00,,0815.4,5.00,0.00,29.3,28.2,00.0,38.1,31.2,15.8,0000.0,0022.92,0006.41,0003.19
2022-06-14 05:05:00,,0815.3,5.01,0.00,29.3,28.3,00.0,38.1,31.3,15.8,0000.0,0021.89,0006.40,0003.19
2022-06-14 05:06:00,,0815.4,5.00,0.00,29.3,28.4,00.0,38.1,31.3,15.8,0000.0,0022.22,0006.41,0003.21
2022-06-14 05:07:00,,0816.0,5.00,0.00,29.4,28.5,00.0,38.1,31.4,15.7,0000.0,0022.78,0006.43,0003.23
2022-06-14 05:08:00,,0816.0,5.00,0.00,29.4,28.6,00.0,38.2,31.4,15.7,0000.0,0023.60,0006.47,0003.23
2022-06-14 05:09:00,,0816.1,4.99,0.00,29.4,28.6,00.0,38.2,31.4,15.7,0000.0,0023.99,0006.46,0003.22
2022-06-14 05:10:00,,0816.0,5.00,0.00,29.5,28.7,00.0,38.2,31.5,15.6,0000.0,0024.51,0006.39,0003.21
2022-06-14 05:11:00,,0815.9,5.02,0.00,29.5,28.3,00.0,38.2,31.4,15.7,0000.0,0024.93,0006.37,0003.21
2022-06-14 05:12:00,,0816.1,4.99,0.00,29.4,27.6,00.0,38.1,31.2,15.8,0000.0,0023.84,0006.33,0003.21
2022-06-14 05:13:00,,0816.0,5.00,0.00,29.3,27.3,00.0,38.1,31.1,16.0,0000.0,0023.45,0006.32,0003.22
2022-06-14 05:14:00,,0815.6,4.99,0.00,29.3,27.3,00.0,38.1,31.0,16.1,0000.0,0022.88,0006.30,0003.23
2022-06-14 05:15:00,,0815.9,4.99,0.00,29.2,27.4,00.0,38.1,31.0,16.1,0000.0,0022.66,0006.28,0003.24
2022-06-14 05:16:00,,0816.1,5.01,0.00,29.2,27.5,00.0,38.1,31.1,16.2,0000.0,0023.06,0006.27,0003.27
2022-06-14 05:17:00,,0815.8,4.99,0.00,29.2,27.7,00.0,38.1,31.1,16.1,0000.0,0023.08,0006.27,0003.28
2022-06-14 05:18:00,,0815.6,5.00,0.00,29.2,27.8,00.0,38.1,31.1,16.2,0000.0,0022.62,0006.29,0003.29
2022-06-14 05:19:00,,0816.0,5.01,0.00,29.3,27.9,00.0,38.1,31.2,16.3,0000.0,0020.51,0006.24,0003.30
2022-06-14 05:20:00,,0815.7,5.00,0.00,29.3,28.0,00.0,38.1,31.2,16.3,0000.0,0019.74,0006.22,0003.32
2022-06-14 05:21:00,,0815.9,5.00,0.00,29.3,28.2,00.0,38.1,31.3,16.3,0000.0,0018.99,0006.34,0003.34
2022-06-14 05:22:00,,0815.9,4.99,0.00,29.3,28.3,00.0,38.1,31.3,16.2,0000.0,0018.50,0006.39,0003.35
2022-06-14 05:23:00,,0815.9,5.00,0.00,29.4,28.4,00.0,38.2,31.3,16.1,0000.0,0018.53,0006.38,0003.35
2022-06-14 05:24:00,,0815.9,5.01,0.00,29.4,28.4,00.0,38.2,31.4,16.0,0000.0,0018.21,0006.36,0003.37
2022-06-14 05:25:00,,0815.9,5.00,0.00,29.4,28.5,00.0,38.2,31.4,15.9,0000.0,0018.10,0006.34,0003.39
2022-06-14 05:26:00,,0816.0,4.99,0.00,29.5,28.6,00.0,38.2,31.4,15.9,0000.0,0019.80,0006.39,0003.39
2022-06-14 05:27:00,,0816.0,5.00,0.00,29.5,28.7,00.0,38.2,31.5,15.8,0000.0,0021.22,0006.49,0003.41
2022-06-14 05:28:00,,0816.0,5.00,0.00,29.5,28.7,00.0,38.3,31.5,15.7,0000.0,0020.86,0006.48,0003.41
2022-06-14 05:29:00,,0816.0,5.01,0.00,29.5,28.5,00.0,38.3,31.5,15.6,0000.0,0021.29,0006.47,0003.41
2022-06-14 05:30:00,,0816.0,5.00,0.00,29.5,27.6,00.0,38.2,31.2,15.7,0000.0,0021.91,0006.49,0003.42
2022-06-14 05:31:00,,0816.0,4.99,0.00,29.4,27.3,00.0,38.2,31.1,15.7,0000.0,0023.20,0006.50,0003.42
2022-06-14 05:32:00,,0816.0,5.01,0.00,29.4,27.3,00.0,38.2,31.1,15.8,0000.0,0023.73,0006.51,0003.43
2022-06-14 05:33:00,,0816.0,4.99,0.00,29.3,27.4,00.0,38.2,31.1,15.8,0000.0,0023.09,0006.44,0003.43
2022-06-14 05:34:00,,0816.0,5.00,0.00,29.3,27.5,00.0,38.2,31.1,15.9,0000.0,0023.53,0006.45,0003.43
2022-06-14 05:35:00,,0816.0,5.01,0.00,29.3,27.6,00.0,38.2,31.1,15.9,0000.0,0023.92,0006.46,0003.42
2022-06-14 05:36:00,,0816.0,4.99,0.00,29.3,27.8,00.0,38.2,31.2,15.9,0000.0,0024.17,0006.49,0003.41
2022-06-14 05:37:00,,0816.0,5.00,0.00,29.3,27.9,00.0,38.2,31.2,15.8,0000.0,0022.51,0006.41,0003.41
2022-06-14 05:38:00,,0816.1,5.01,0.00,29.3,28.0,00.0,38.2,31.2,15.8,0000.0,0020.67,0006.30,0003.40
2022-06-14 05:39:00,,0816.1,5.00,0.00,29.3,28.2,00.0,38.2,31.3,15.8,0000.0,0020.77,0006.38,0003.42
2022-06-14 05:40:00,,0816.2,4.99,0.00,29.4,28.3,00.0,38.2,31.3,15.8,0000.0,0020.60,0006.45,0003.42
2022-06-14 05:41:00,,0816.3,5.01,0.00,29.4,28.4,00.0,38.2,31.4,15.8,0000.0,0020.28,0006.42,0003.40
2022-06-14 05:42:00,,0816.3,5.01,0.00,29.4,28.4,00.0,38.2,31.4,15.8,0000.0,0019.46,0006.42,0003.41
2022-06-14 05:43:00,,0816.3,5.00,0.00,29.5,28.5,00.0,38.3,31.4,15.8,0000.0,0018.51,0006.39,0003.40
2022-06-14 05:44:00,,0816.3,4.99,0.00,29.5,28.6,00.0,38.3,31.5,15.8,0000.0,0018.31,0006.40,0003.40
2022-06-14 05:45:00,,0816.3,4.99,0.00,29.5,28.6,00.0,38.3,31.5,15.9,0000.0,0018.38,0006.46,0003.41
2022-06-14 05:46:00,,0816.3,4.99,0.00,29.5,28.7,00.0,38.3,31.5,16.1,0000.0,0018.21,0006.51,0003.42
2022-06-14 05:47:00,,0816.3,4.99,0.00,29.5,28.7,00.0,38.3,31.5,16.2,0000.0,0018.74,0006.49,0003.42
2022-06-14 05:48:00,,0816.3,5.01,0.00,29.6,28.7,00.0,38.3,31.5,16.3,0000.0,0018.65,0006.50,0003.42
2022-06-14 05:49:00,,0816.3,5.01,0.00,29.5,28.1,00.0,38.3,31.3,16.4,0000.0,0018.51,0006.62,0003.43
2022-06-14 05:50:00,,0816.3,4.99,0.00,29.4,27.4,00.0,38.2,31.1,16.5,0000.0,0018.18,0006.58,0003.43
2022-06-14 05:51:00,,0816.4,5.01,0.00,29.4,27.2,00.0,38.2,31.0,16.6,0000.0,0017.85,0006.53,0003.44
2022-06-14 05:52:00,,0816.4,4.99,0.00,29.3,27.2,00.0,38.2,31.0,16.7,0000.0,0017.92,0006.60,0003.47
2022-06-14 05:53:00,,0816.4,5.01,0.00,29.3,27.2,00.0,38.2,31.0,16.8,0000.0,0019.44,0006.75,0003.49
2022-06-14 05:54:00,,0816.4,4.99,0.00,29.2,27.4,00.0,38.2,31.0,16.8,0000.0,0019.97,0006.84,0003.51
2022-06-14 05:55:00,,0816.4,5.01,0.00,29.2,27.5,00.0,38.2,31.0,16.8,0000.0,0020.10,0006.89,0003.54
2022-06-14 05:56:00,,0816.4,5.00,0.00,29.2,27.6,00.0,38.2,31.0,16.9,0000.0,0020.32,0007.01,0003.56
2022-06-14 05:57:00,,0816.6,4.99,0.00,29.2,27.7,00.0,38.1,31.1,17.1,0000.0,0020.66,0007.13,0003.59
2022-06-14 05:58:00,,0816.5,5.02,0.00,29.2,27.8,00.0,38.1,31.1,17.2,0000.0,0020.89,0007.35,0003.63
2022-06-14 05:59:00,,0816.4,5.00,0.00,29.2,27.9,00.0,38.2,31.1,17.3,0000.0,0022.36,0007.57,0003.68
